Hourly Data Report for October 07, 2020

MUSKOKA
ONTARIO
Current Station Operator: NAVCAN

44°58'29.000" N
79°18'12.000" W
281.90 m
6115529
71532
YQA

Download Data

Hourly Data (October 2020)
Hourly Data Report for October 7, 2020
TIME Temp Definition
°C
Dew Point Definition
°C
Rel Hum Definition
%
Wind Dir Definition
10's deg

Wind Spd Definition
km/h
Visibility Definition
km
Stn Press Definition
kPa
Hmdx Definition


Wind Chill Definition


Weather Definition


00:00 9.3 8.4 94 16 11 16.1 97.10     LegendNANA
01:00 10.3 8.7 90 17 9 16.1 97.00     LegendNANA
02:00 11.3 9.1 86 19 13 16.1 96.90     LegendNANA
03:00 11.2 10.6 96 21 13 9.7 96.82     Rain,Fog
04:00 11.6 11.1 97 20 13 9.7 96.72     Rain,Fog
05:00 11.5 11.0 97 19 13 16.1 96.58     LegendNANA
06:00 11.3 10.9 97 18 13 12.9 96.46     Rain
07:00 12.5 11.3 92 23 13 16.1 96.43     LegendNANA
08:00 13.2 10.2 82 26 24 16.1 96.45     LegendNANA
09:00 12.9 9.3 78 28 18 16.1 96.52     LegendNANA
10:00 13.5 8.1 70 27 22 16.1 96.53     LegendNANA
11:00 11.2 8.8 85 30 22 16.1 96.63     LegendNANA
12:00 12.4 8.5 77 29 18 16.1 96.68     Rain
13:00 12.1 7.7 74 29 21 16.1 96.77     LegendNANA
14:00 12.7 6.8 67 29 28 16.1 96.88     LegendNANA
15:00 11.6 8.6 82 30 18 16.1 97.02     Rain
16:00 13.0 7.2 68 30 34 16.1 97.14     LegendNANA
17:00 11.7 7.2 74 29 18 16.1 97.28     LegendNANA
18:00 10.4 6.8 78 31 15 16.1 97.44     LegendNANA
19:00 9.6 4.4 70 31 21 16.1 97.57     LegendNANA
20:00 8.6 4.4 75 31 18 16.1 97.64     LegendNANA
21:00 7.6 4.0 78 32 21 16.1 97.75     LegendNANA
22:00 6.0 2.3 77 33 18 16.1 97.85     LegendNANA
23:00 4.2 1.9 85 34 8 16.1 97.91     LegendNANA

Notes on Data Quality.

Legend

  • E = Estimated
  • M = Missing
  • NA = Not Available*
  • [empty] = Indicates an unobserved value
Date modified: